Regional Weather Roundup
Issued by NWS

Home | Current Version | Previous Version | Graphics & Text | Print | Product List | Glossary Off
Versions: 1 2 3 4 5 6 7 8 9 10 11 12 13 14 15 16 17 18 19 20 21 22 23 24 25 26 27

000
ASUS45 KBOU 260107
RWRCO

WEATHER ROUNDUP FOR COLORADO
NATIONAL WEATHER SERVICE DENVER/BOULDER CO
700 PM MDT SAT MAR 25 2017

NOTE: "FAIR" INDICATES FEW OR NO CLOUDS BELOW 12000 FEET WITH NO
SIGNIFICANT WEATHER AND/OR OBSTRUCTIONS TO VISIBILITY.

COZ001>005-013-030-031-260200-
...NORTHWEST COLORADO...

CITY           SKY/WX    TMP DP  RH WIND       PRES   REMARKS
CRAIG          CLOUDY    52  28  39 SW12      29.88R
HAYDEN         FAIR      52  21  30 W17G23    29.87R
MEEKER         CLOUDY    52  27  38 SW10G31   29.89R
MOUNT WERNER   NOT AVBL
STEAMBOAT SPGS CLOUDY    49  28  43 SW15G22   29.88R
WALDEN         NOT AVBL
$$

COZ006>008-011-260200-
...WEST CENTRAL VALLEYS...

CITY           SKY/WX    TMP DP  RH WIND       PRES   REMARKS
GRAND JUNCTION LGT RAIN  54  38  54 SW14      29.87R
MONTROSE       CLOUDY    55  28  35 NW8       29.90R
EAGLE          PTCLDY    55  23  28 W13       29.87R
RIFLE          CLOUDY    53  31  42 W20       29.88R
DELTA          MOCLDY    57  29  34 W9        29.89S
NUCLA          CLOUDY    52  27  37 NW10      29.92R
$$

COZ017>023-064>068-260200-
...SOUTHWEST COLORADO...

CITY           SKY/WX    TMP DP  RH WIND       PRES   REMARKS
DURANGO        CLOUDY    54  21  27 N8        29.86F
CORTEZ         CLOUDY    55  28  35 W16       29.87R
PAGOSA SPRINGS FAIR      51  17  26 W5        29.92F
TELLURIDE      NOT AVBL
WOLF CREEK PAS FAIR      32  14  47 SW18G25   30.11F WCI  20
$$

COZ009-010-012-014-032>034-037-058>063-260200-
...CENTRAL COLORADO...

CITY           SKY/WX    TMP DP  RH WIND       PRES   REMARKS
ASPEN          MOCLDY    51  20  29 VRB3      29.88R
BUENA VISTA    CLOUDY    52  17  24 S13G22    29.88R
COPPER MTN     CLOUDY    36  19  51 MISG      30.06R HAZE
BERTHOUD PASS  LGT SNOW  23  12  63 S9        30.07F WCI  13
COTTONWOOD PAS FAIR      46  16  29 S18G25    29.95S
GUNNISON       FAIR      50  24  36 W10       29.91R
KREMMLING      CLOUDY    59  19  21 SE3       29.87S
LEADVILLE      CLOUDY    39  22  50 SW8       29.96R
MONARCH PASS   CLOUDY    32  18  55 W20G26    30.15S WCI  20
SALIDA         FAIR      54  24  32 SE13G20   29.94F
SUNLIGHT       CLOUDY    32  23  69 SW13G24   30.04S WCI  22
WILKERSON PASS MOCLDY    34  18  51 S3        30.05S
$$

COZ069>075-260200-
...SAN LUIS VALLEY/SANGRE DE CRISTO MOUNTAINS...

CITY           SKY/WX    TMP DP  RH WIND       PRES   REMARKS
ALAMOSA        FAIR      55  21  26 SW15      29.88F
LA VETA PASS   NOT AVBL
SAGUACHE       FAIR      52  27  37 SE10      29.90S
$$

COZ035-036-038>040-260200-
...NORTHERN COLORADO FRONT RANGE...

CITY           SKY/WX    TMP DP  RH WIND       PRES   REMARKS
DENVER INTL AP MOCLDY    52  32  46 SE10      29.84S
DMNS CITY PARK   N/A     56  26  31 E12       29.83S
AURORA         CLOUDY    51  32  49 SE8       29.84F
FRONT RANGE AP MOCLDY    55  36  47 SE15      29.86S
ERIE MUNI ARPT FAIR      58  18  21 E5        29.83R
BOULDER MUN AP FAIR      57  19  23 NE3       29.83R
CENTENNIAL     CLOUDY    52  31  44 SE8       29.84S
BROOMFIELD     MOCLDY    57  18  21 E8        29.84S
FORT COLLINS   FAIR      56  25  30 SE9       29.85R
LONGMONT       FAIR      59  19  21 E7        29.85S
$$

COZ041-046-047-076>085-087-088-260200-
...PIKES PEAK/PALMER DIVIDE AND SOUTHERN FOOTHILLS...

CITY           SKY/WX    TMP DP  RH WIND       PRES   REMARKS
COLO. SPRINGS  MOCLDY    52  32  46 SE16      29.88F
A. F. ACADEMY  FAIR      50  30  45 SE15      29.87S
SCHRIEVER AFB  FAIR      49  33  53 S10       29.90S
ELLICOTT         N/A    N/A N/A N/A SE9       29.89S
FALCON         FAIR      46  32  58 S14       29.91F
FORT CARSON    FAIR      54  31  42 SE10      29.87S
LIMON          FAIR      48  33  56 SE10      29.87F
MONUMENT HILL  FAIR      41  32  70 S13       29.90S
TRINIDAD       FAIR      58  33  39 SE9       29.84F
$$

COZ042>045-048>051-090-091-260200-
...NORTHEAST COLORADO...

CITY           SKY/WX    TMP DP  RH WIND       PRES   REMARKS
GREELEY ARPT   FAIR      57  30  35 SE7       29.84F
AKRON          FAIR      53  33  46 S12       29.86S
BURLINGTON     FAIR      55  34  45 CALM      29.88S
WRAY           FAIR      54  28  37 SE5       29.88F
STERLING       FAIR      55  34  44 SE6       29.84S
HOLYOKE        FAIR      54  34  47 SE8       29.87S
FORT MORGAN    FAIR      54  30  40 E8        29.85S
$$

COZ086-089-092>099-260200-
...SOUTHEAST COLORADO...

CITY           SKY/WX    TMP DP  RH WIND       PRES   REMARKS
PUEBLO         FAIR      59  32  36 E12       29.82F
LA JUNTA       FAIR      59  29  31 E9        29.82F
LAMAR          FAIR      59  21  23 E9        29.83F
SPRINGFIELD      N/A     56  24  29 SE9       29.86F
$$




USA.gov is the U.S. government's official web portal to all federal, state and local government web resources and services.